Location: Newark
(33.6439°N, 114.9881°W)
Time: 19:45:25
(UTC+00:00)

Tiros 1 - Pass Details

Date: 23 July 2019
Orbit: 631 x 664 km, 48.4° (Epoch: 25 August)

Event Time Altitude Azimuth Distance (km) Brightness Sun altitude
Rises 02:18:42 0° 302° (WNW) 2,987 12.8 4.7°
Reaches altitude 10° 02:21:09 10° 296° (WNW) 2,069 12.5 4.2°
Maximum altitude 02:25:39 43° 225° (SW) 921 8.3 3.3°
Drops below altitude 10° 02:30:07 10° 154° (SSE) 2,042 9.3 2.5°
Sets 02:32:31 0° 148° (SSE) 2,943 10.0 2.0°
